DLH4566 LKPR-LOWW

Flight info

Callsign DLH4566
Flight time 0h 35m
Altitude 17000
Route VOZ DCT LANUX LANUX7W
Aircraft A339/H-SADE1E2E3GHIJ3J5M1P2RWXY/LB2D1

Departure

Time 2026-05-06 18:31
Airport Václav Havel Airport Prague (LKPR)

Arrival

Time 2026-05-06 19:07
Airport Vienna International Airport (LOWW)
Time Latitude Longitude Altitude Speed Heading
2026-05-06 18:01 50.11097 14.26924 1183 ft 0 kts 245°
2026-05-06 18:14 50.11115 14.26981 1181 ft 8 kts 275°
2026-05-06 18:14 50.11108 14.27015 1184 ft 0 kts 341°
2026-05-06 18:15 50.11108 14.27014 1184 ft 1 kts 341°
2026-05-06 18:16 50.11131 14.27006 1180 ft 7 kts 347°
2026-05-06 18:16 50.11191 14.26976 1175 ft 11 kts 338°
2026-05-06 18:16 50.11254 14.26901 1178 ft 11 kts 295°
2026-05-06 18:16 50.11239 14.26788 1178 ft 11 kts 249°
2026-05-06 18:17 50.11204 14.26667 1174 ft 13 kts 245°
2026-05-06 18:17 50.11164 14.26533 1174 ft 14 kts 245°
2026-05-06 18:17 50.11117 14.26377 1170 ft 18 kts 245°
2026-05-06 18:17 50.11062 14.26196 1171 ft 18 kts 245°
2026-05-06 18:18 50.11007 14.26014 1170 ft 19 kts 245°
2026-05-06 18:18 50.10929 14.25876 1173 ft 16 kts 217°
2026-05-06 18:18 50.10839 14.25780 1173 ft 16 kts 214°
2026-05-06 18:18 50.10755 14.25691 1176 ft 14 kts 214°
2026-05-06 18:19 50.10684 14.25600 1182 ft 12 kts 241°
2026-05-06 18:19 50.10703 14.25455 1178 ft 17 kts 299°
2026-05-06 18:19 50.10763 14.25288 1174 ft 18 kts 299°
2026-05-06 18:19 50.10773 14.25260 1175 ft 0 kts 298°
2026-05-06 18:21 50.10776 14.25253 1175 ft 2 kts 300°
2026-05-06 18:21 50.10783 14.25234 1175 ft 2 kts 299°
2026-05-06 18:22 50.10786 14.25227 1176 ft 0 kts 298°
2026-05-06 18:25 50.10787 14.25222 1179 ft 2 kts 298°
2026-05-06 18:25 50.10801 14.25170 1176 ft 5 kts 289°
2026-05-06 18:25 50.10807 14.25133 1176 ft 0 kts 283°
2026-05-06 18:26 50.10808 14.25116 1176 ft 4 kts 279°
2026-05-06 18:27 50.10809 14.25115 1176 ft 0 kts 279°
2026-05-06 18:29 50.10809 14.25113 1176 ft 0 kts 279°
2026-05-06 18:29 50.10814 14.25052 1181 ft 11 kts 277°
2026-05-06 18:29 50.10818 14.24888 1175 ft 22 kts 268°
2026-05-06 18:29 50.10774 14.24654 1173 ft 13 kts 214°
2026-05-06 18:30 50.10730 14.24687 1176 ft 0 kts 131°
2026-05-06 18:30 50.10685 14.24776 1179 ft 42 kts 127°
2026-05-06 18:30 50.10334 14.25505 1186 ft 123 kts 127°
2026-05-06 18:31 50.09705 14.26824 1370 ft 167 kts 127°
2026-05-06 18:31 50.08964 14.28251 2079 ft 168 kts 127°
2026-05-06 18:31 50.08242 14.29726 2597 ft 186 kts 126°
2026-05-06 18:31 50.07434 14.31437 3037 ft 203 kts 124°
2026-05-06 18:32 50.06627 14.33287 3735 ft 208 kts 124°
2026-05-06 18:32 50.05840 14.35178 4638 ft 207 kts 126°
2026-05-06 18:32 50.04975 14.37020 5297 ft 221 kts 130°
2026-05-06 18:32 50.03921 14.39038 5162 ft 259 kts 131°
2026-05-06 18:33 50.02752 14.41270 5007 ft 269 kts 130°
2026-05-06 18:33 50.01592 14.43570 5021 ft 272 kts 129°
2026-05-06 18:33 50.00439 14.45911 5544 ft 273 kts 129°
2026-05-06 18:33 49.99286 14.48246 6302 ft 271 kts 133°
2026-05-06 18:34 49.97912 14.50253 6918 ft 272 kts 147°
2026-05-06 18:34 49.96420 14.51621 7471 ft 271 kts 156°
2026-05-06 18:34 49.94729 14.52967 8118 ft 275 kts 156°
2026-05-06 18:34 49.93025 14.54371 8776 ft 279 kts 155°
2026-05-06 18:35 49.91304 14.55809 9436 ft 282 kts 156°
2026-05-06 18:35 49.89565 14.57271 10053 ft 286 kts 156°
2026-05-06 18:35 49.87783 14.58764 10389 ft 301 kts 155°
2026-05-06 18:35 49.85881 14.60347 10553 ft 319 kts 155°
2026-05-06 18:36 49.83895 14.62004 10802 ft 334 kts 155°
2026-05-06 18:36 49.81842 14.63726 11360 ft 337 kts 155°
2026-05-06 18:36 49.79776 14.65462 11987 ft 339 kts 155°
2026-05-06 18:36 49.77689 14.67208 12557 ft 342 kts 155°
2026-05-06 18:37 49.75589 14.68958 13128 ft 345 kts 155°
2026-05-06 18:37 49.73460 14.70729 13689 ft 348 kts 155°
2026-05-06 18:37 49.71741 14.72159 14125 ft 350 kts 155°
2026-05-06 18:37 49.69591 14.73945 14671 ft 351 kts 156°
2026-05-06 18:38 49.67435 14.75734 15224 ft 353 kts 156°
2026-05-06 18:38 49.65265 14.77532 15728 ft 356 kts 156°
2026-05-06 18:38 49.63080 14.79340 16272 ft 357 kts 156°
2026-05-06 18:38 49.60881 14.81159 16756 ft 360 kts 156°
2026-05-06 18:39 49.58642 14.83006 16948 ft 372 kts 156°
2026-05-06 18:39 49.56347 14.84898 16998 ft 374 kts 156°
2026-05-06 18:39 49.54058 14.86798 16968 ft 374 kts 155°
2026-05-06 18:40 49.49853 14.91390 16987 ft 379 kts 147°
2026-05-06 18:40 49.47764 14.93853 16984 ft 377 kts 147°
2026-05-06 18:40 49.45675 14.96301 16976 ft 378 kts 147°
2026-05-06 18:40 49.43562 14.98761 16973 ft 388 kts 147°
2026-05-06 18:41 49.41367 15.01304 16974 ft 403 kts 147°
2026-05-06 18:41 49.39091 15.03941 16974 ft 415 kts 147°
2026-05-06 18:41 49.36899 15.06487 16972 ft 414 kts 147°
2026-05-06 18:41 49.34644 15.09108 16973 ft 414 kts 147°
2026-05-06 18:42 49.32339 15.11783 16969 ft 414 kts 147°
2026-05-06 18:42 49.30038 15.14447 16971 ft 414 kts 147°
2026-05-06 18:42 49.27736 15.17106 16970 ft 414 kts 147°
2026-05-06 18:42 49.25435 15.19761 16971 ft 414 kts 147°
2026-05-06 18:43 49.23152 15.22390 16970 ft 415 kts 147°
2026-05-06 18:43 49.20847 15.25043 16962 ft 414 kts 147°
2026-05-06 18:43 49.18543 15.27693 16968 ft 414 kts 147°
2026-05-06 18:43 49.16242 15.30335 16966 ft 414 kts 147°
2026-05-06 18:44 49.13947 15.32968 16752 ft 411 kts 147°
2026-05-06 18:44 49.11668 15.35579 16195 ft 409 kts 147°
2026-05-06 18:44 49.09398 15.38173 15543 ft 406 kts 147°
2026-05-06 18:44 49.07156 15.40731 15120 ft 400 kts 147°
2026-05-06 18:45 49.04914 15.43286 15018 ft 405 kts 147°
2026-05-06 18:45 49.02653 15.45861 15115 ft 405 kts 147°
2026-05-06 18:45 49.00589 15.48211 15195 ft 406 kts 147°
2026-05-06 18:45 48.98381 15.50725 15275 ft 406 kts 147°
2026-05-06 18:46 48.96657 15.52684 15339 ft 407 kts 147°
2026-05-06 18:46 48.95766 15.53696 15373 ft 407 kts 147°
2026-05-06 18:46 48.93492 15.56277 15462 ft 406 kts 147°
2026-05-06 18:46 48.91218 15.58854 15526 ft 407 kts 147°
2026-05-06 18:47 48.88976 15.61393 15589 ft 408 kts 147°
2026-05-06 18:47 48.86715 15.63999 15644 ft 407 kts 146°
2026-05-06 18:47 48.84501 15.66658 15324 ft 405 kts 145°
2026-05-06 18:47 48.82325 15.69304 15070 ft 394 kts 145°
2026-05-06 18:48 48.80229 15.71851 14907 ft 378 kts 145°
2026-05-06 18:48 48.78132 15.74371 14835 ft 393 kts 145°
2026-05-06 18:48 48.75936 15.76987 14809 ft 409 kts 145°
2026-05-06 18:48 48.73692 15.79661 14760 ft 411 kts 145°
2026-05-06 18:49 48.71465 15.82320 14700 ft 402 kts 145°
2026-05-06 18:49 48.69305 15.84900 14563 ft 388 kts 145°
2026-05-06 18:49 48.67225 15.87378 14405 ft 371 kts 145°
2026-05-06 18:49 48.65297 15.89673 14230 ft 353 kts 145°
2026-05-06 18:50 48.63410 15.91911 14078 ft 336 kts 146°
2026-05-06 18:50 48.61615 15.94036 13933 ft 320 kts 146°
2026-05-06 18:50 48.59924 15.96035 13806 ft 305 kts 146°
2026-05-06 18:50 48.58276 15.97982 13439 ft 298 kts 146°
2026-05-06 18:51 48.56647 15.99900 12907 ft 296 kts 146°
2026-05-06 18:51 48.55046 16.01788 12641 ft 285 kts 146°
2026-05-06 18:51 48.53527 16.03587 12504 ft 269 kts 146°
2026-05-06 18:51 48.52089 16.05290 12239 ft 259 kts 146°
2026-05-06 18:52 48.50677 16.06954 11796 ft 257 kts 146°
2026-05-06 18:52 48.49266 16.08612 11298 ft 256 kts 147°
2026-05-06 18:52 48.47809 16.10141 10759 ft 255 kts 154°
2026-05-06 18:52 48.46172 16.11296 9948 ft 265 kts 161°
2026-05-06 18:53 48.44408 16.12407 8786 ft 286 kts 160°
2026-05-06 18:53 48.42513 16.13618 7575 ft 309 kts 160°
2026-05-06 18:53 48.40530 16.14916 6846 ft 311 kts 160°
2026-05-06 18:53 48.38572 16.16211 6423 ft 301 kts 159°
2026-05-06 18:54 48.36704 16.17466 6181 ft 286 kts 160°
2026-05-06 18:54 48.34939 16.18644 6013 ft 268 kts 161°
2026-05-06 18:54 48.33302 16.19730 5960 ft 246 kts 161°
2026-05-06 18:54 48.31784 16.20745 5964 ft 240 kts 160°
2026-05-06 18:55 48.30457 16.22349 5966 ft 252 kts 132°
2026-05-06 18:55 48.29736 16.24769 5965 ft 259 kts 103°
2026-05-06 18:55 48.29812 16.27505 5981 ft 266 kts 77°
2026-05-06 18:55 48.30444 16.30085 5967 ft 263 kts 67°
2026-05-06 18:56 48.31223 16.32610 5967 ft 270 kts 60°
2026-05-06 18:56 48.32465 16.34642 5930 ft 263 kts 32°
2026-05-06 18:56 48.34103 16.35615 5667 ft 255 kts
2026-05-06 18:56 48.35811 16.35391 5366 ft 238 kts 338°
2026-05-06 18:57 48.37332 16.34574 5148 ft 228 kts 332°
2026-05-06 18:57 48.38777 16.33707 4986 ft 218 kts 333°
2026-05-06 18:57 48.40193 16.32921 4976 ft 224 kts 335°
2026-05-06 18:57 48.41692 16.32175 4965 ft 227 kts 338°
2026-05-06 18:58 48.43243 16.31734 4964 ft 232 kts 358°
2026-05-06 18:58 48.44814 16.32387 4965 ft 240 kts 28°
2026-05-06 18:58 48.46032 16.34105 4958 ft 240 kts 60°
2026-05-06 18:58 48.46549 16.36437 4956 ft 235 kts 91°
2026-05-06 18:59 48.46252 16.38773 4961 ft 225 kts 122°
2026-05-06 18:59 48.45498 16.40830 4961 ft 222 kts 126°
2026-05-06 18:59 48.44671 16.42767 4971 ft 217 kts 137°
2026-05-06 18:59 48.43497 16.44120 4974 ft 209 kts 159°
2026-05-06 19:00 48.42170 16.44908 4973 ft 207 kts 167°
2026-05-06 19:00 48.40772 16.45533 4981 ft 207 kts 170°
2026-05-06 19:00 48.39404 16.46108 4981 ft 206 kts 170°
2026-05-06 19:00 48.38472 16.46510 4979 ft 207 kts 169°
2026-05-06 19:01 48.36637 16.47303 4980 ft 204 kts 169°
2026-05-06 19:01 48.35307 16.47875 4978 ft 197 kts 169°
2026-05-06 19:01 48.33987 16.48436 4937 ft 196 kts 169°
2026-05-06 19:01 48.32676 16.49003 4753 ft 197 kts 170°
2026-05-06 19:02 48.31361 16.49565 4492 ft 195 kts 170°
2026-05-06 19:02 48.30065 16.50118 4229 ft 192 kts 169°
2026-05-06 19:02 48.28790 16.50663 3972 ft 189 kts 169°
2026-05-06 19:02 48.27539 16.51201 3716 ft 184 kts 171°
2026-05-06 19:03 48.26337 16.51712 3478 ft 175 kts 171°
2026-05-06 19:03 48.25177 16.52208 3250 ft 174 kts 171°
2026-05-06 19:03 48.24013 16.52703 3028 ft 171 kts 171°
2026-05-06 19:03 48.22875 16.53187 2804 ft 170 kts 171°
2026-05-06 19:04 48.21733 16.53673 2568 ft 169 kts 170°
2026-05-06 19:04 48.20616 16.54146 2355 ft 167 kts 170°
2026-05-06 19:04 48.19499 16.54622 2131 ft 165 kts 169°
2026-05-06 19:04 48.18414 16.55086 1916 ft 159 kts 169°
2026-05-06 19:05 48.17374 16.55526 1704 ft 150 kts 168°
2026-05-06 19:05 48.16407 16.55932 1508 ft 141 kts 168°
2026-05-06 19:05 48.15427 16.56346 1341 ft 154 kts 166°
2026-05-06 19:05 48.14416 16.56781 1155 ft 149 kts 165°
2026-05-06 19:06 48.13431 16.57215 927 ft 141 kts 163°
2026-05-06 19:06 48.12441 16.57613 801 ft 154 kts 162°
2026-05-06 19:06 48.11427 16.58049 629 ft 144 kts 165°
2026-05-06 19:06 48.10707 16.58345 628 ft 52 kts 164°
2026-05-06 19:07 48.10470 16.58448 620 ft 20 kts 167°
2026-05-06 19:07 48.10378 16.58466 628 ft 19 kts 177°
2026-05-06 19:07 48.10259 16.58443 623 ft 16 kts 197°
2026-05-06 19:07 48.10134 16.58387 625 ft 11 kts 207°
2026-05-06 19:08 48.10097 16.58318 628 ft 7 kts 240°
2026-05-06 19:08 48.10087 16.58249 626 ft 7 kts 272°
2026-05-06 19:08 48.10108 16.58200 630 ft 9 kts 312°
2026-05-06 19:08 48.10165 16.58164 633 ft 9 kts 339°
2026-05-06 19:09 48.10234 16.58136 633 ft 11 kts 345°
2026-05-06 19:09 48.10326 16.58099 629 ft 17 kts 345°
2026-05-06 19:09 48.10371 16.58081 631 ft 0 kts 345°